#timestamp,LO_Frequency,Hit,StdDev 
1659747615.8,286047001.9,N
1659747635.6,286047001.9,N
1659747655.5,286047004.3,Y
1659747675.3,286047000.3,P
1659747695.1,286046999.9,N
1659747715.9,286047000.3,N
1659747735.7,286047000.3,N
1659747755.5,286046999.9,N
1659747775.4,286046999.7,N
1659747795.2,286047000.1,N
1659747815.1,286046999.7,N
1659747816.0,286046999.7,N
1659747835.8,286047000.6,N
1659747855.6,286046999.9,N
1659747875.5,286047002.3,Y
1659747895.3,286047000.4,P
1659747915.2,286047000.1,N
1659747935.9,286047000.9,P
1659747955.7,286046999.7,N
1659747975.6,286047002.2,Y
1659747995.4,286046999.7,P
1659748015.3,286047000.3,N
1659748035.1,286046999.7,N
1659748036.0,286046999.7,N
1659748055.8,286047002.7,Y
1659748075.7,286047002.4,P
1659748095.6,286047000.5,N
1659748115.4,286047002.8,N
1659748135.2,286047000.1,N
1659748155.1,286046999.7,N
1659748156.0,286046999.7,N
1659748175.8,286047001.7,N
1659748195.7,286047001.5,N
1659748215.5,286047001.4,N
1659748235.3,286047001.5,N
1659748255.2,286047002.0,N
1659748275.0,286047001.6,N
1659748275.9,286047001.6,N
1659748295.8,286047002.0,N
1659748315.6,286047001.9,N
1659748335.4,286047002.5,N
1659748355.3,286047002.2,N
1659748375.1,286047001.7,N
1659748395.8,286047001.8,N
1659748415.7,286047002.2,N
1659748435.5,286047002.2,N
1659748455.3,286047000.2,N
1659748475.2,286047002.2,N
1659748495.0,286047002.4,N
1659748495.9,286047002.4,N
1659748515.8,286046999.8,N
1659748535.6,286046999.7,N
1659748555.4,286047002.5,N
1659748575.3,286047000.1,N
1659748595.1,286047002.6,N
1659748615.9,286047002.0,N
1659748635.7,286047002.5,N
1659748655.5,286047002.4,N
1659748675.4,286047002.3,N
1659748695.2,286047002.7,N
1659748715.0,286047002.6,N
1659748715.9,286047002.6,Y
1659748765.8,286047001.0,E
1659748775.7,286046998.8,N
1659748795.6,286046998.4,P
1659748815.4,286046998.5,P
1659748835.3,286046998.5,Y
1659748855.1,286047000.0,P
1659748856.0,286047000.0,N
1659748875.8,286047000.3,N
1659748895.7,286047001.0,N
1659748915.5,286047001.1,N
1659748935.3,286047000.5,N
1659748955.2,286046998.3,N
1659748975.0,286046998.5,N
1659748975.9,286046998.5,N
1659748995.8,286047001.1,N
1659749015.6,286047000.3,N
1659749035.4,286047000.3,N
1659749055.3,286046998.9,N
1659749075.1,286046999.2,N
1659749095.9,286046999.6,N
1659749115.7,286046998.7,N
1659749135.5,286046998.8,N
1659749155.4,286046999.3,N
1659749175.2,286046998.4,N
1659749195.1,286046998.9,N
1659749196.0,286046998.9,N
1659749215.8,286046999.1,N
1659749235.6,286047000.8,N
1659749255.5,286046998.3,N
1659749275.3,286047000.7,N
1659749295.1,286046998.4,N
1659749315.9,286047000.5,N
1659749335.7,286047000.0,N
1659749355.6,286047000.4,N
1659749375.4,286046999.8,N
1659749395.2,286047002.8,Y
1659749415.1,286047002.7,P
1659749416.0,286047002.7,N
1659749435.8,286047002.7,N
1659749455.7,286046999.7,N
1659749475.5,286046999.8,N
1659749495.3,286047002.5,N
1659749515.2,286047002.6,N
1659749535.0,286047001.4,N
1659749535.9,286047001.4,N
1659749555.8,286047001.5,N
1659749575.6,286047001.4,N
1659749595.4,286047004.2,Y
1659749615.3,286047002.1,P
1659749635.1,286047002.6,P
1659749655.8,286047002.2,P
1659749675.7,286047002.3,Y
1659749695.5,286046998.4,P
1659749715.4,286046998.2,N
1659749735.2,286046999.3,N
1659749755.0,286046998.5,N
1659749755.9,286046998.5,N
1659749775.8,286046998.3,N
1659749795.6,286046998.4,N
1659749815.4,286046998.5,N
1659749835.3,286046999.0,N
1659749855.1,286046999.3,N
1659749875.9,286046999.4,N
1659749895.7,286046999.3,N
1659749915.5,286047001.1,N
1659749935.4,286046998.6,N
1659749955.2,286046998.5,N
1659749975.0,286046998.7,N
1659749976.0,286046998.7,N
1659749995.8,286046998.8,N
1659750015.6,286046998.1,N
1659750035.5,286046998.7,N
1659750055.3,286046998.4,N
1659750075.1,286046998.8,N
1659750095.9,286046998.3,N
1659750115.7,286046998.9,N
1659750135.5,286046998.8,N
1659750155.4,286046999.5,N
1659750175.2,286046998.9,N
1659750195.1,286046997.0,Y
1659750196.0,286046997.0,P
1659750215.8,286046998.1,N
1659750235.6,286047000.7,N
1659750255.5,286047001.0,N
1659750275.3,286047000.0,N
1659750295.2,286047000.9,N
1659750315.9,286047000.9,N
1659750335.7,286047000.7,N
1659750355.6,286047000.7,N
1659750375.4,286046998.5,N
1659750395.2,286046998.1,N
1659750415.1,286047001.2,N
1659750416.0,286047001.2,N
1659750435.8,286047000.8,N
1659750455.7,286046998.5,N
1659750475.5,286047000.4,N
1659750495.4,286047000.4,N
1659750515.3,286047000.5,N
1659750535.1,286046999.8,N
1659750555.9,286047002.2,N
1659750575.7,286047002.3,N
1659750595.6,286047002.4,N
1659750615.4,286047002.6,N
1659750635.2,286047002.5,N
1659750655.1,286047002.1,N
1659750656.0,286047002.1,N
1659750675.8,286047002.2,N
1659750695.7,286047002.1,N
1659750715.5,286047001.9,N
1659750735.3,286047001.5,N
1659750755.2,286047002.0,N
1659750775.0,286047001.8,N
1659750775.9,286047001.8,N
1659750795.3,286047000.2,N
1659750815.1,286047000.9,N
1659750835.9,286047000.5,N
1659750855.7,286047000.3,N
1659750875.5,286047000.2,N
1659750895.4,286047000.0,N
1659750915.2,286047002.7,N
1659750935.1,286046999.8,N
1659750936.0,286046999.8,N
1659750955.8,286047002.7,N
1659750975.6,286047002.8,N
1659750995.5,286046999.7,N
1659751015.3,286046999.9,N
1659751035.1,286047002.8,N
1659751055.9,286046999.8,N
1659751075.7,286047000.2,N
1659751095.6,286047000.4,N
1659751115.4,286047001.0,N
1659751135.2,286046999.9,N
1659751155.1,286047002.6,N
1659751156.0,286047002.6,N
1659751175.8,286047002.3,N
1659751195.6,286047002.8,N
